HP3ICC-22 Weather Reports


time (UTC)temp
C
wind
direction
speed
KPH
gust
KPH
rain 1hr
cm
rain 24hr
cm
rain mn
cm
humidity
%
barometer
mb
20260507110504 9 3 4.8 8.0 0.00 0.00 0.00 76 1014.0
20260507110404 9 3 4.8 8.0 0.00 0.00 0.00 76 1014.0
20260507104504 8 3 4.8 8.0 0.00 0.00 0.00 86 1014.0
20260507104404 8 3 4.8 8.0 0.00 0.00 0.00 86 1014.0
20260507102503 9 0 4.8 8.0 0.00 0.00 0.00 76 1013.0
20260507102403 9 0 4.8 8.0 0.00 0.00 0.00 76 1013.0
20260507100503 8 0 4.8 8.0 0.00 0.00 0.00 83 1013.0
20260507100403 8 0 4.8 8.0 0.00 0.00 0.00 83 1013.0
20260507094502 8 360 4.8 8.0 0.00 0.00 0.00 78 1014.0
20260507094402 8 360 4.8 8.0 0.00 0.00 0.00 78 1014.0
20260507092502 10 360 4.8 8.0 0.00 0.00 0.00 76 1013.0
20260507092402 10 360 4.8 8.0 0.00 0.00 0.00 76 1013.0
20260507090501 8 360 4.8 8.0 0.00 0.00 0.00 86 1013.0
20260507090401 8 360 4.8 8.0 0.00 0.00 0.00 86 1013.0
20260507084501 9 360 4.8 8.0 0.00 0.00 0.00 86 1013.0
20260507084401 9 360 4.8 8.0 0.00 0.00 0.00 86 1013.0
20260507082500 10 359 4.8 8.0 0.00 0.00 0.00 76 1013.0
20260507082400 10 359 4.8 8.0 0.00 0.00 0.00 76 1013.0
20260507080500 8 359 4.8 8.0 0.00 0.00 0.00 86 1013.0
20260507080400 8 359 4.8 8.0 0.00 0.00 0.00 86 1013.0
20260507074459 9 359 4.8 8.0 0.00 0.00 0.00 86 1013.0
20260507074359 9 359 4.8 8.0 0.00 0.00 0.00 86 1013.0
20260507072459 10 359 4.8 8.0 0.00 0.00 0.00 76 1013.0
20260507072359 10 359 4.8 8.0 0.00 0.00 0.00 76 1013.0
20260507070458 8 359 4.8 8.0 0.00 0.00 0.00 86 1013.0
20260507070358 8 359 4.8 8.0 0.00 0.00 0.00 86 1013.0
20260507064457 9 359 4.8 8.0 0.00 0.00 0.00 86 1014.0
20260507064357 9 359 4.8 8.0 0.00 0.00 0.00 86 1014.0
20260507062457 10 358 4.8 8.0 0.00 0.00 0.00 76 1014.0
20260507062357 10 358 4.8 8.0 0.00 0.00 0.00 76 1014.0
20260507060456 9 358 4.8 8.0 0.00 0.00 0.00 89 1014.0
20260507060356 9 358 4.8 8.0 0.00 0.00 0.00 89 1014.0
20260507054456 10 358 4.8 8.0 0.00 0.00 0.00 76 1015.0
20260507054356 10 358 4.8 8.0 0.00 0.00 0.00 76 1015.0
20260507052455 9 2 4.8 9.7 0.00 0.00 0.00 85 1014.0
20260507052355 9 2 4.8 9.7 0.00 0.00 0.00 85 1014.0
20260507050455 9 2 4.8 8.0 0.00 0.00 0.00 79 1014.0
20260507050355 9 2 4.8 8.0 0.00 0.00 0.00 79 1014.0
20260507044454 10 2 4.8 9.7 0.00 0.00 0.00 76 1015.0
20260507044354 10 2 4.8 9.7 0.00 0.00 0.00 76 1015.0
20260507042453 9 2 4.8 9.7 0.00 0.00 0.00 84 1015.0
20260507042353 9 2 4.8 9.7 0.00 0.00 0.00 84 1015.0
20260507040453 10 2 4.8 9.7 0.00 0.00 0.00 84 1014.0
20260507040353 10 2 4.8 9.7 0.00 0.00 0.00 84 1014.0
20260507034452 10 8 4.8 11.3 0.00 0.00 0.00 78 1015.0
20260507034352 10 8 4.8 11.3 0.00 0.00 0.00 78 1015.0
20260507032452 11 8 4.8 11.3 0.00 0.00 0.00 76 1014.0
20260507032352 11 8 4.8 11.3 0.00 0.00 0.00 76 1014.0
20260507030451 10 8 4.8 11.3 0.00 0.00 0.00 88 1014.0
20260507030351 10 8 4.8 11.3 0.00 0.00 0.00 88 1014.0
20260507024450 10 8 4.8 11.3 0.00 0.00 0.00 88 1015.0
20260507024350 10 8 4.8 11.3 0.00 0.00 0.00 88 1015.0
20260507022450 11 16 4.8 11.3 0.00 0.00 0.00 76 1013.0
20260507022350 11 16 4.8 11.3 0.00 0.00 0.00 76 1013.0
20260507020449 10 16 4.8 11.3 0.00 0.00 0.00 80 1013.0
20260507020349 10 16 4.8 11.3 0.00 0.00 0.00 80 1013.0
20260507014449 10 16 4.8 11.3 0.00 0.00 0.00 80 1014.0
20260507014349 10 16 4.8 11.3 0.00 0.00 0.00 80 1014.0
20260507012448 11 23 4.8 9.7 0.00 0.00 0.00 80 1012.0
20260507012348 11 23 4.8 9.7 0.00 0.00 0.00 80 1012.0
20260507010447 11 23 4.8 8.0 0.00 0.00 0.00 80 1012.0
20260507010347 11 23 4.8 8.0 0.00 0.00 0.00 80 1012.0
20260507004447 12 23 4.8 9.7 0.00 0.00 0.00 80 1014.0
20260507004347 12 23 4.8 9.7 0.00 0.00 0.00 80 1014.0
20260507002446 11 38 6.4 8.0 0.00 0.00 0.00 78 1012.0
20260507002346 11 38 6.4 8.0 0.00 0.00 0.00 78 1012.0
20260507000446 12 38 6.4 8.0 0.00 0.00 0.00 77 1012.0
20260507000346 12 38 6.4 8.0 0.00 0.00 0.00 77 1012.0
20260506234445 13 38 6.4 9.7 0.00 0.00 0.00 75 1013.0
20260506234345 13 38 6.4 9.7 0.00 0.00 0.00 75 1013.0
20260506232445 12 59 4.8 9.7 0.00 0.00 0.00 77 1012.0
20260506232344 12 59 4.8 9.7 0.00 0.00 0.00 77 1012.0
20260506230444 12 59 4.8 8.0 0.00 0.00 0.00 77 1012.0
20260506230344 12 59 4.8 8.0 0.00 0.00 0.00 77 1012.0
20260506224443 13 59 4.8 9.7 0.00 0.00 0.00 77 1012.0
20260506224343 13 59 4.8 9.7 0.00 0.00 0.00 77 1012.0
20260506222443 13 67 6.4 8.0 0.00 0.00 0.00 77 1011.0
20260506222343 13 67 6.4 8.0 0.00 0.00 0.00 77 1011.0
20260506220442 13 67 6.4 8.0 0.00 0.00 0.00 75 1011.0
20260506220342 13 67 6.4 8.0 0.00 0.00 0.00 75 1011.0
20260506214442 15 67 6.4 8.0 0.00 0.00 0.00 74 1012.0
20260506214342 15 67 6.4 8.0 0.00 0.00 0.00 74 1012.0
20260506212441 15 66 6.4 8.0 0.00 0.00 0.00 74 1011.0
20260506212341 15 66 6.4 8.0 0.00 0.00 0.00 74 1011.0
20260506210441 15 66 6.4 8.0 0.00 0.00 0.00 74 1011.0
20260506210341 15 66 6.4 8.0 0.00 0.00 0.00 74 1011.0
20260506204440 15 66 6.4 8.0 0.00 0.00 0.00 76 1012.0
20260506204340 15 66 6.4 8.0 0.00 0.00 0.00 76 1012.0
20260506202440 15 63 6.4 9.7 0.00 0.00 0.00 75 1012.0
20260506202340 15 63 6.4 9.7 0.00 0.00 0.00 75 1012.0
20260506200439 16 63 6.4 9.7 0.00 0.00 0.00 75 1012.0
20260506200339 16 63 6.4 9.7 0.00 0.00 0.00 75 1012.0
20260506194438 15 63 6.4 9.7 0.00 0.00 0.00 75 1013.0
20260506194338 15 63 6.4 9.7 0.00 0.00 0.00 75 1013.0
20260506192438 15 65 6.4 9.7 0.03 0.00 0.00 75 1013.0
20260506192338 15 65 6.4 9.7 0.03 0.00 0.00 75 1013.0
20260506190438 15 65 6.4 9.7 0.03 0.00 0.00 75 1013.0
20260506190338 15 65 6.4 9.7 0.03 0.00 0.00 75 1013.0
20260506184437 15 74 6.4 8.0 0.00 0.00 0.00 75 1013.0
20260506184336 15 74 6.4 8.0 0.00 0.00 0.00 75 1013.0
20260506182436 16 74 6.4 8.0 0.03 0.00 0.00 75 1013.0
20260506182336 16 74 6.4 8.0 0.03 0.00 0.00 75 1013.0
20260506180435 15 74 6.4 8.0 0.00 0.00 0.00 76 1013.0
20260506180335 15 74 6.4 8.0 0.00 0.00 0.00 76 1013.0
20260506174435 16 74 6.4 8.0 0.03 0.00 0.00 76 1014.0
20260506174335 16 74 6.4 8.0 0.03 0.00 0.00 76 1014.0
20260506172435 16 76 4.8 8.0 0.00 0.00 0.00 72 1014.0
20260506172335 16 76 4.8 8.0 0.00 0.00 0.00 72 1014.0
20260506170434 15 76 4.8 8.0 0.00 0.00 0.00 72 1014.0
20260506170334 15 76 4.8 8.0 0.00 0.00 0.00 72 1014.0
20260506164434 15 76 4.8 8.0 0.00 0.00 0.00 72 1014.0
20260506164333 15 76 4.8 8.0 0.00 0.00 0.00 72 1014.0
20260506162433 15 61 4.8 8.0 0.00 0.00 0.00 73 1014.0
20260506162333 15 61 4.8 8.0 0.00 0.00 0.00 73 1014.0
20260506160433 15 61 4.8 8.0 0.00 0.00 0.00 73 1014.0
20260506160332 15 61 4.8 8.0 0.00 0.00 0.00 73 1014.0
20260506154432 15 61 4.8 8.0 0.00 0.00 0.00 73 1014.0
20260506154332 15 61 4.8 8.0 0.00 0.00 0.00 73 1014.0
20260506152432 14 41 4.8 8.0 0.00 0.00 0.00 78 1014.0
20260506152331 14 41 4.8 8.0 0.00 0.00 0.00 78 1014.0
20260506150431 14 41 4.8 8.0 0.00 0.00 0.00 79 1014.0
20260506150331 14 41 4.8 8.0 0.00 0.00 0.00 79 1014.0
20260506144431 13 21 6.4 11.3 0.00 0.00 0.00 80 1014.0
20260506144330 13 21 6.4 11.3 0.00 0.00 0.00 80 1014.0
20260506142430 15 21 6.4 11.3 0.00 0.00 0.00 80 1014.0
20260506142330 15 21 6.4 11.3 0.00 0.00 0.00 80 1014.0
20260506140429 14 21 6.4 11.3 0.00 0.00 0.00 82 1014.0
20260506140329 14 21 6.4 11.3 0.00 0.00 0.00 82 1014.0
20260506134429 14 21 6.4 11.3 0.00 0.00 0.00 81 1015.0
20260506134328 14 21 6.4 11.3 0.00 0.00 0.00 81 1015.0
20260506132428 12 14 6.4 11.3 0.00 0.00 0.00 86 1013.0
20260506132328 12 14 6.4 11.3 0.00 0.00 0.00 86 1013.0
20260506130427 12 14 6.4 11.3 0.00 0.00 0.00 88 1013.0
20260506130327 12 14 6.4 11.3 0.00 0.00 0.00 88 1013.0
20260506124427 10 14 6.4 11.3 0.00 0.00 0.00 89 1014.0
20260506124327 10 14 6.4 11.3 0.00 0.00 0.00 89 1014.0
20260506122427 10 6 6.4 11.3 0.00 0.00 0.00 90 1013.0
20260506122327 10 6 6.4 11.3 0.00 0.00 0.00 90 1013.0
20260506120426 11 6 6.4 11.3 0.00 0.00 0.00 90 1013.0
20260506120326 11 6 6.4 11.3 0.00 0.00 0.00 90 1013.0
20260506114425 9 6 6.4 11.3 0.00 0.00 0.00 79 1014.0
20260506114325 9 6 6.4 11.3 0.00 0.00 0.00 79 1014.0
20260506112425 8 2 6.4 11.3 0.00 0.00 0.00 86 1012.0
20260506112325 8 2 6.4 11.3 0.00 0.00 0.00 86 1012.0